SCP
0 0 0 0 0 0 0 0 0 0 0 0 0 0 0 0 0 0 0 0 0 0 0 0 0 0 0 0 0 0 0 0 0 0 0 0 0 0
0 0 0 0 0 0 0 0 0 0 0 0 0 0 0 0 0 0 0 0 0 0 0 0 0 0 0 0 0 0 0 0 0 0 0 0 0 0
0 0 0 0 0 0 0 0 0 0 0 0 0 0 0 0 0 0 0 0 0 0 0 0 0 0 0 0 0 0 0 0 0 0 0 0 0 0
0 0 0 0 0 0 0 0 0 0 0 0 0 0 0 0 0 0 0 0 0 0 0 0 0 0 0 0 0 0 0 0 0 0 0 0 0 0
0 0 0 0 0 0 0 0 0 0 0 0 0 0 0 0 0 0 -0 -0 0 0 0 0 0 0 0 0 0 0 0 0 0 0 0 0 0 0
0 0 0 0 0 0 0 0 0 0 0 0 0 0 0 0 0 0 0 -0 0 0 0 0 0 0 0 0 0 0 0 0 0 0 0 0 0 0
0 0 0 0 0 0 0 0 0 0 0 0 0 0 0 0 0 0 0 0 0 0 0 0 0 0 0 0 0 0 0 0 0 0 0 0 0 0
0 0 0 0 0 0 0 0 0 0 0 0 0 0 0 0 0 0 0 0 0 0 0 0 0 0 0 0 0 0 0 0 0 0 0 0 0 0
0 0 0 0 0 0 0 0 0 0 0 0 0 0 0 0 0 0 0 0 0 0 0 0 0 0 0 0 0 0 0 0 0 0 0 0 0 0
0 0 0 0 0 0 0 0 0 0 0 0 -0 0 0 0 -0 -0 0 0 0 0 0 0 0 0 0 -0 -0 0 0 0 0 0 0 0 0 0
0 0 0 0 0 0 0 0 0 0 0 0 0 0 0 0 -0 -0 0 0 0 0 0 0 0 0 0 0 0 0 0 0 0 0 0 0 0 0
0 0 0 0 0 0 0 0 0 0 0 0 0 0 0 0 0 0 0 0 0 0 0 0 0 0 0 0 0 0 0 0 0 0 0 0 0 0
0 0 0 0 0 0 0 0 0 0 0 0 0 0 0 0 0 0 0 0 0 0 0 0 0 0 0 0 0 0 0 0 0 0 0 0 0 0
0 0 0 0 0 0 0 0 0 0 0 0 0 0 0 0 0 0 0 0 0 0 -0 0 0 0 0 0 0 0 0 0 0 0 0 0 0 0
0 0 0 0 0 0 0 0 0 0 0 0 0 0 0 0 0 0 0 0 0 0 -0 -0 0 0 0 0 0 0 0 0 0 0 0 0 0 0
0 0 0 0 0 0 0 0 0 0 0 0 0 0 0 0 0 0 0 0 0 0 -0 -0 0 0 0 0 0 0 0 0 0 0 0 0 0 0
0 0 0 0 0 0 0 0 0 0 0 0 0 0 0 0 0 0 0 0 0 0 0 0 0 0 0 0 0 0 0 0 0 0 0 0 0 0
0 0 0 0 0 0 0 0 0 0 0 0 0 0 0 0 0 0 0 0 0 0 0 0 0 0 0 0 0 0 0 0 0 0 0 0 0 0
0 0 0 0 0 0 0 0 0 0 0 0 0 0 0 0 0 0 0 0 0 0 0 0 0 0 0 0 0 0 0 0 0 0 0 0 0 0
0 0 0 0 0 0 0 0 0 0 0 0 0 0 0 0 0 0 0 0 0 0 0 0 0 0 0 0 0 0 0 0 0 0 0 0 0 0
0 0 0 0 0 0 0 0 0 0 0 0 0 0 0 0 0 0 0 0 0 0 0 0 0 0 0 0 0 0 0 0 0 0 0 0 0 0
0 0 0 0 0 0 0 0 0 0 0 0 0 0 0 0 0 0 0 0 0 0 0 0 0 0 0 0 0 0 0 0 0 0 0 0 0 0
0 0 0 0 0 0 0 0 0 0 0 0 0 0 0 0 0 0 0 0 0 0 0 0 0 0 0 0 0 0 0 0 0 0 0 0 0 0
Wind_Speed
6 6 5 4 4 4 3 2 3 2 2 2 2 3 2 2 3 3 3 7 9 9 9 9 9 10 10 11 10 10 10 11 11 11 12 13 13 14
5 6 6 4 4 4 4 3 3 2 1 2 2 2 2 3 5 3 4 9 9 10 9 9 9 9 10 11 10 10 11 11 11 12 13 14 14 14
6 6 6 5 4 4 4 4 4 3 2 2 2 2 3 3 4 4 4 4 5 10 10 9 8 9 9 10 10 10 11 11 12 12 13 14 14 14
5 6 5 5 5 4 4 4 3 2 2 1 2 2 3 3 4 4 4 4 4 9 10 9 10 9 9 9 9 9 10 10 11 11 12 12 13 13
4 4 4 5 5 4 4 4 2 2 1 1 2 2 2 2 3 4 5 4 5 7 8 8 9 10 10 10 10 9 9 9 9 9 10 10 11 12
4 3 3 3 3 3 3 3 2 3 2 1 2 2 2 3 2 3 4 4 5 5 6 7 9 10 11 10 10 9 8 8 8 8 8 9 9 10
5 4 2 3 4 3 2 2 2 2 2 2 2 2 3 3 3 2 3 4 5 2 3 5 4 4 6 8 9 9 8 8 8 8 8 9 9 10
4 3 3 4 6 8 8 6 4 1 1 1 2 2 4 3 3 2 2 3 4 3 2 5 3 3 4 4 7 9 8 8 8 8 9 9 9 10
2 2 2 3 5 5 7 8 8 7 3 2 2 4 4 4 3 3 2 2 4 4 2 4 3 4 4 5 8 9 8 9 9 8 9 9 9 10
3 1 1 2 3 4 5 5 5 5 5 2 4 6 6 5 4 3 3 3 5 4 1 2 3 3 4 4 7 9 9 9 8 8 9 9 9 9
4 3 1 1 4 5 4 5 6 6 6 7 7 7 9 9 4 1 2 1 3 4 1 1 3 3 4 4 5 8 9 9 9 9 9 9 9 8
4 4 4 4 6 6 3 3 5 6 7 9 9 9 6 6 5 3 3 2 2 3 3 1 2 2 4 4 3 4 5 7 8 8 9 9 8 4
3 4 4 8 9 8 4 3 5 6 5 5 5 5 5 4 4 3 3 4 3 4 4 1 2 1 2 4 4 3 3 3 3 4 6 8 8 5
3 4 5 10 10 8 5 5 6 5 3 3 4 4 4 4 4 4 4 4 5 6 5 2 2 2 1 3 4 4 4 3 2 3 3 5 6 7
4 8 9 9 7 5 6 8 5 3 2 3 4 4 4 4 4 4 4 3 3 4 3 3 3 2 1 2 3 3 4 4 3 3 2 3 3 3
5 8 9 8 7 6 6 5 3 2 1 2 3 4 4 4 3 2 2 3 3 4 5 2 1 2 1 2 1 3 3 3 3 3 2 2 3 3
5 4 4 4 5 5 4 4 4 4 3 3 3 4 4 4 4 3 2 2 2 3 4 4 2 0 2 1 1 2 3 3 3 3 2 2 3 3
2 3 3 3 3 4 4 4 4 4 4 4 4 4 4 4 4 3 2 2 2 2 3 3 3 3 4 2 2 2 2 3 3 3 1 2 3 3
3 2 3 3 3 4 4 3 4 4 4 4 4 4 5 5 4 4 3 3 2 2 3 2 1 1 2 4 5 2 2 2 2 3 2 1 2 4
2 2 3 3 3 3 4 4 4 4 4 5 5 5 5 4 4 4 4 3 2 3 3 2 1 2 3 3 3 3 2 2 1 2 2 2 2 4
2 2 2 3 3 3 3 3 4 4 5 4 5 5 5 5 5 5 4 5 3 2 3 3 4 4 1 1 2 4 3 3 4 2 1 1 3 4
2 2 3 3 3 3 3 4 4 4 5 5 5 5 5 5 5 6 4 3 3 3 3 4 4 2 1 1 2 4 4 3 2 4 4 4 2 1
1 2 2 3 3 3 3 4 5 4 4 5 5 5 6 5 5 4 4 3 3 3 3 4 4 3 2 1 2 3 4 3 2 3 3 4 6 6
Wind_Direction
56 57 56 45 42 39 47 71 110 80 0 335 338 339 339 327 333 336 318 318 321 318 314 306 300 298 296 293 292 291 293 296 296 294 293 291 290 290
50 54 49 40 39 35 40 46 65 109 75 310 303 306 323 343 347 338 314 325 323 320 319 312 302 298 295 292 292 291 291 292 290 291 292 292 292 291
48 53 47 43 39 31 36 43 49 72 78 313 305 319 341 337 334 331 321 319 316 319 320 320 313 305 299 294 291 291 291 291 289 288 290 292 293 292
48 49 41 44 41 31 36 38 38 50 84 351 320 323 322 321 326 326 328 329 312 312 318 318 320 318 312 302 292 287 284 282 285 287 288 291 293 295
51 54 48 53 42 33 35 30 15 21 50 40 309 303 303 319 333 325 325 318 318 316 318 320 322 321 316 308 299 291 285 281 279 280 284 289 293 296
34 49 59 65 54 33 28 14 9 10 9 3 319 312 305 309 333 325 327 324 316 315 323 321 318 321 317 313 305 295 287 282 277 273 274 280 286 291
17 25 47 61 49 28 14 349 359 360 352 354 332 330 320 327 323 307 310 311 306 303 319 313 315 313 311 310 307 299 294 290 283 279 278 280 282 285
11 11 38 44 28 16 7 1 355 333 316 317 307 310 294 288 287 293 303 331 314 304 326 303 311 303 299 292 294 299 300 295 288 283 282 282 282 283
6 11 28 36 20 2 353 356 351 344 326 215 254 272 269 270 281 294 285 274 266 276 322 295 306 300 295 302 306 306 306 303 296 291 289 288 288 288
11 34 58 5 358 355 348 347 336 327 314 288 245 259 260 260 236 235 256 284 280 276 221 278 300 299 305 310 312 314 314 312 308 303 299 296 294 294
7 16 25 348 335 354 358 344 334 324 322 325 307 291 284 281 260 224 289 326 316 302 284 253 290 306 309 307 313 324 322 317 313 311 309 307 306 306
351 348 341 324 325 336 330 325 323 313 324 331 331 329 322 312 300 214 210 218 267 290 281 280 292 329 322 303 305 320 327 320 322 323 327 330 331 328
338 326 313 319 321 321 309 260 267 286 304 312 313 317 323 320 309 279 214 197 213 252 257 220 276 295 278 297 310 312 322 317 326 331 340 346 349 350
317 307 306 317 322 324 320 304 309 319 321 327 329 323 319 313 305 299 275 238 224 236 255 209 228 239 275 305 304 312 319 320 325 325 331 341 348 349
306 309 321 336 345 344 340 340 344 351 343 335 323 304 290 289 301 315 321 316 303 275 267 226 209 220 199 247 287 303 313 317 331 333 338 350 350 351
336 330 343 5 16 2 352 352 353 330 309 301 300 300 309 322 324 324 326 335 344 326 324 328 240 186 216 260 263 297 299 304 321 335 338 344 352 357
329 348 7 5 3 357 350 346 348 356 354 337 335 334 332 333 323 323 330 340 344 319 320 329 346 349 205 205 303 301 306 310 310 320 344 345 336 341
26 16 357 354 354 351 348 344 347 350 344 345 349 346 339 333 325 325 336 336 314 301 298 306 341 358 354 321 218 265 310 306 312 330 350 345 326 325
49 8 352 347 347 349 352 352 344 338 345 356 354 346 342 339 335 333 337 338 324 307 295 293 318 58 5 321 304 225 228 299 326 337 339 322 302 306
21 3 353 349 351 357 360 359 353 354 359 355 350 347 346 342 339 334 332 330 319 319 322 315 286 226 207 235 272 286 230 211 279 312 313 314 301 308
360 4 2 3 1 5 5 5 4 0 353 347 346 343 341 341 337 331 327 332 344 339 329 305 281 278 222 29 327 306 291 230 202 212 265 323 330 339
7 12 8 16 14 13 10 8 5 358 351 347 339 336 334 333 330 327 328 329 324 319 311 309 325 1 37 335 290 288 300 309 277 253 230 203 194 258
25 31 23 17 18 20 17 11 4 347 339 333 330 330 330 329 325 324 326 331 332 339 344 341 347 356 341 307 301 299 306 311 318 324 301 260 233 242